Notices

What's New in latest Release from April 7th, 2021:

- Updated Glossary, including Speed of Maximum Gust, and Total Hourly Precipitation

- Updated national and regional climate services offices contacts and prices information

- Addition of station inventory lists for 1981-2010, 1971-2000, and 1961-1990 Normals.

If you haven't already, please take our survey and provide feedback about our website: https://eccc.sondage-survey.ca/f/LanguageSelection.aspx?s=442ca660-fcf1-47c0-95a9-59707d6fd709

Hourly Data Report for January 25, 2020

SATURNA ISLAND CS
BRITISH COLUMBIA
Current Station Operator: ECCC - MSC

48°47'02.067" N
123°02'41.082" W
24.40 m
1017101
71473
WEZ

Download Data

Hourly Data (January 2020)
Hourly Data Report for January 25, 2020
TIME
LST
Temp Definition
°C
Dew Point Definition
°C
Rel Hum Definition
%
Precip. Amount Definition
mm

Wind Dir Definition
10's deg

Wind Spd Definition
km/h
Visibility Definition
km
Stn Press Definition
kPa
Hmdx Definition


Wind Chill Definition


Weather Definition


00:00 8.5 6.8 89 0.0 16 18   101.11     LegendNANA
01:00 8.5 6.8 89 0.0 10 9   101.05     LegendNANA
02:00 7.9 6.0 88 0.0 9 23   100.99     LegendNANA
03:00 7.4 5.9 90 0.0 8 26   100.94     LegendNANA
04:00 7.3 5.9 91 0.0 7 26   100.89     LegendNANA
05:00 7.4 5.9 90 0.2 10 28   100.89     LegendNANA
06:00 7.5 6.4 93 0.8 12 14   100.91     LegendNANA
07:00 7.4 6.6 94 0.8 9 16   100.93     LegendNANA
08:00 6.9 6.2 95 0.4 7 18   101.00     LegendNANA
09:00 6.8 6.1 96 0.6 8 26   101.05     LegendNANA
10:00 6.9 6.1 95 0.2 8 26   101.15     LegendNANA
11:00 7.7 6.7 93 0.0 9 21   101.20     LegendNANA
12:00 7.6 6.1 90 0.0 7 23   101.18     LegendNANA
13:00 7.7 6.1 90 0.0 9 13   101.24     LegendNANA
14:00 7.6 6.4 92 0.2 4 5   101.31     LegendNANA
15:00 7.7 6.6 93 0.0 7 12   101.32     LegendNANA
16:00 7.6 6.6 93 0.0 6 16   101.31     LegendNANA
17:00 7.6 6.8 94 0.0 7 19   101.27     LegendNANA
18:00 7.6 6.8 95 0.0 8 20   101.21     LegendNANA
19:00 7.6 6.7 94 0.0 9 12   101.15     LegendNANA
20:00 7.5 6.5 93 0.0 7 16   101.06     LegendNANA
21:00 7.4 6.2 92 0.0 6 19   100.93     LegendNANA
22:00 7.6 6.2 91 0.0 9 21   100.77     LegendNANA
23:00 7.9 5.8 86 0.0 8 22   100.66     LegendNANA

Notes on Data Quality.

Legend

  • E = Estimated
  • M = Missing
  • NA = Not Available*
  • [empty] = Indicates an unobserved value
Date modified: